Вернуться в каталог

STARLINK-31296

АктивенСвязьVLEO
NORAD 58879·PAYLOAD·🇺🇸 United States

Запущен Jan 29, 2024 с Vandenberg Space Force Base

Loading…

Ближайшие Пролёты (ближайшие 24 часа)

TLE

СвежийSource: CelesTrak SupGP

Эпоха: Sep 14, 2026, 15:02 UTC

1 58879C 24020D   26257.62687500  .00040042  00000+0  11831-2 0  2573
2 58879  53.1574 137.0566 0001326  93.4682 107.1108 15.34369076    19

Отслеживайте STARLINK-31296 в реальном времени с AllMySat

Download on the App Store